Tracking 29892 objects as of 21-Nov-2024
HD Live streaming from Space Station
objects crossing your sky now

FENGYUN 1C DEB

Track FENGYUN 1C DEB now!
10-day predictions


NORAD ID: 30369
Int'l Code: 1999-025ACG
Perigee: 789.3 km
Apogee: 933.1 km
Inclination: 98.7 °
Period: 102.0 minutes
Semi major axis: 7232 km
RCS: 0.022 m2 (small)
Launch date: May 10, 1999
Source: People's Republic of China (PRC)
Launch site: Taiyaun Space Center, China (TSC)

Note: This is SATELLITE DEBRIS
Your satellite tracking list
Your tracking list is empty




NASA's NSSDC Master Catalog

Two Line Element Set (TLE):
1 30369U 99025ACG 24325.28430740  .00000524  00000-0  29831-3 0  9997
2 30369  98.7122 327.4822 0099461 216.8779 211.5283 14.11548719917795
Source of the keplerian elements: AFSPC